Weather in Kuzminka

Russia / Altai Krai     51°18′48″N   81°56′33″E
temp.,
°C
wind,
m/s
gust,
m/s
humid.,
%
clouds,
%
prec.,
mm/h
press.,
hPa
HPBL,
m
24 january, mon
mon2401:00−24se1110061 0.0 10389
04:00−24ene1110034 0.0 10399
07:00−24e1110057 0.0 10399
10:00−24e0010064 0.0 10409
13:00−17n229655 0.0 103988
16:00−16n249866 0.0 1039113
19:00−22nne3210085 0.0 104021
22:00−24nne2210099 0.0 104018
25 january, tue
tue2501:00−26ne1110099 0.0 10409
04:00−27se1110085 0.0 10409
07:00−29sse1110083 0.1 10409
10:00−28sse2210099 0.0 104018
13:00−22s239977 0.1 1039101
16:00−20s249752 0.0 1037117
19:00−24sse221005 0.0 103821
22:00−25sse229948 0.0 103726
26 january, wed
wed2601:00−23sse3410073 0.0 103647
04:00−20s3694100 0.0 103494
07:00−19s4991100 0.0 1033131
10:00−17s41686100 0.0 1032295
13:00−13s71779100 0.0 1031549
16:00−11s81579100 0.0 1030585
19:00−11s71494100 0.6 1031608
22:00−10s61295100 1.4 1032574
27 january, thu
thu2701:00−11ssw61095100 2.5 1033495
04:00−12ssw5995100 0.6 1034398
07:00−12ssw4896100 1.1 1036345
10:00−13ssw3796100 0.4 1037316
13:00−12ssw4794100 0.6 1038402
16:00−12ssw4695100 0.2 1038434
19:00−16sse229968 0.3 103912
22:00−20se2110077 0.0 10409
28 january, fri
fri2801:00−22se1110075 0.0 10409
04:00−22ese1110033 0.0 10399
07:00−23ese2110011 0.0 10399
10:00−22ese21985 0.0 10389
13:00−14sw00865 0.0 103635
16:00−15nnw11975 0.0 103610
19:00−22ene2210063 0.0 10369
22:00−24ese1110065 0.0 10369